Location: Bishop�s Knoyle
(51.0728°N, 2.1714°W)
Time: 08:14:23
(UTC+00:00)

BEESAT 2 - Pass Details

Date: 29 November 2021
Orbit: 498 x 513 km, 64.9° (Epoch: 20 January)

Event Time Altitude Azimuth Distance (km) Brightness Sun altitude
Exits shadow 05:47:03 14° 351° (N) 1,509 ? -18.1°
Maximum altitude 05:49:00 19° 27° (NNE) 1,267 ? -17.8°
Drops below altitude 10° 05:51:54 10° 75° (ENE) 1,749 ? -17.4°
Sets 05:54:33 0° 93° (E) 2,632 ? -17.0°
